Location: Ostrava
(49.8330°N, 18.2830°E)
Time: 04:04:33
(UTC+02:00)

Explorer 7 - Visible Passes

Search period start: 21 September 2014 00:00
Search period end: 01 October 2014 00:00
Orbit: 492 x 706 km, 50.3° (Epoch: 19 September)

Date Brightness Start Highest point End Pass type
(mag) Time Alt. Az. Time Alt. Az. Time Alt. Az.
21 Sep 7.0 20:16:23 10° W 20:21:02 88° N 20:23:13 29° E visible
21 Sep 8.7 21:57:34 10° W 21:59:52 27° W 21:59:52 27° W visible
22 Sep 6.9 20:26:45 10° W 20:31:22 81° SSW 20:32:58 38° ESE visible
22 Sep 9.2 22:08:03 10° W 22:09:37 19° W 22:09:37 19° W visible
23 Sep 7.1 20:37:06 10° WNW 20:41:39 64° SSW 20:42:44 46° SE visible
23 Sep 9.7 22:18:43 10° W 22:19:24 13° W 22:19:24 13° W visible
24 Sep 7.1 19:06:18 10° W 19:11:04 87° N 19:15:30 10° E visible
24 Sep 7.5 20:47:29 10° W 20:51:52 47° SSW 20:52:32 43° S visible
25 Sep 7.1 19:16:39 10° W 19:21:23 83° SSW 19:25:43 11° ESE visible
25 Sep 8.1 20:57:55 10° W 21:02:00 33° SW 21:02:23 32° SSW visible
26 Sep 7.3 19:26:59 10° WNW 19:31:40 67° SSW 19:35:36 13° ESE visible
26 Sep 8.7 21:08:33 10° W 21:12:02 22° SW 21:12:16 22° SW visible
27 Sep 7.7 19:37:20 10° WNW 19:41:53 50° SSW 19:45:33 13° SE visible
27 Sep 9.3 21:19:37 10° WSW 21:21:57 14° SW 21:22:13 14° SW visible
28 Sep 8.3 19:47:45 10° W 19:52:00 35° SSW 19:55:34 12° SSE visible
29 Sep 8.9 19:58:19 10° W 20:02:02 24° SW 20:05:33 10° SSE visible
30 Sep 9.5 20:09:15 10° W 20:11:57 15° SW 20:14:34 10° S visible
